{"data":{"norad_id":51747,"intl_designator":"2022-016AK","name":"STARLINK-3446","alt_names":[],"object_type":"PAYLOAD","status":"ACTIVE","operator":null,"country":"US","launch_date":"2022-02-21","launch_site_code":"AFETR","launch_vehicle":null,"mission":null,"orbit_class":"UNKNOWN","rcs_meters":null,"size_class":null,"mass_kg":null,"dimensions":null,"purposes":["comms"],"wikipedia_slug":null,"has_3d_model":false,"image_url":null,"decayed_at":null,"tle_current":{"epoch":"2026-09-20T04:40:56.190720Z","epoch_age_seconds":78610,"freshness":"FRESH","line1":"1 51747U 22016AK  26263.19509480  .00000210  00000+0  18540-4 0  9994","line2":"2 51747  53.1594 152.2447 0001245  95.4735 264.6408 15.31700493253118","mean_motion":15.31700493,"eccentricity":0.0001245,"inclination_deg":53.1594,"raan_deg":152.2447,"arg_perigee_deg":95.4735,"mean_anomaly_deg":264.6408,"bstar":1.854e-5,"rev_number":25311,"period_min":94.013157701582,"perigee_km":469.88584061576,"apogee_km":471.59121062164,"semimajor_km":6848.8755256187,"source":"CELESTRAK","updated_at":"2026-09-20T09:00:39.932811Z"}}}